Regional Weather Roundup
Issued by NWS New Orleans/Baton Rouge, LA

Home | Current Version | Previous Version | Text Only | Print | Product List | Glossary On
Versions: 1 2 3 4 5 6 7 8 9 10 11 12 13 14 15 16 17 18 19 20 21 22 23 24 25 26 27 28 29 30 31 32 33 34 35 36 37 38 39 40 41 42 43 44 45 46 47 48 49 50
000
ASUS44 KLIX 230210
RWRLIX
NEW ORLEANS REGIONAL WEATHER ROUNDUP
NATIONAL WEATHER SERVICE NEW ORLEANS LA
800 PM CST MON DEC 22 2014

NOTE: "FAIR" INDICATES FEW OR NO CLOUDS BELOW 12,000 FEET WITH NO
      SIGNIFICANT WEATHER AND/OR OBSTRUCTIONS TO VISIBILITY.
      SKY/WX - SKY CONDITION AND SIGNIFICANT WEATHER.
      TMP - AIR TEMPERATURE.     DP    - DEWPOINT TEMPERATURE.
      RH  - RELATIVE HUMIDITY.   PRES  - PRESSURE.
      HI  - HEAT INDEX.          WCI   - WIND CHILL INDEX.

*  THESE STATIONS ARE NOT NWS OR FAA STATIONS AND ARE NOT UNDER
   NWS QUALITY CONTROL.

LAZ038-040-048-061>063-065>067-069-230300-
SOUTHEAST LOUISIANA

CITY           SKY/WX    TMP DP  RH WIND       PRES   REMARKS
N.O. AUDUBON     N/A     70  67  90 MISG        N/A
N.O. INTL ARPT CLOUDY    70  67  90 S13       29.74R FOG
N.O. LAKEFRONT CLOUDY    71  66  84 S13       29.74R
N.O. DOWNTOWN* CLOUDY    70  64  83 S9        29.75R
SLIDELL        CLOUDY    70  67  90 S8        29.73R
BATON ROUGE    MOCLDY    69  64  84 S9        29.70R
BOOTHVILLE     CLEAR     68  67  96 S10       29.77S FOG
BELLE CHASSE   CLOUDY    70  67  90 S13       29.74R
BOGALUSA*        N/A     69  65  86 S7        29.74S
GALLIANO*      MOCLDY    69  67  93 MISG      29.75S FOG
NEW ROADS*       N/A     67  64  90 S7        29.69S
GONZALES*        N/A     67  67 100 S6        29.71S
HAMMOND*       NOT AVBL
HOUMA*         CLOUDY    67  67  97 S7        29.74S FOG
PORT FOURCHON* CLEAR     68  66  94 S7        29.78F FOG

$$

MSZ070-080>082-230300-
SOUTHERN MISSISSIPPI

CITY           SKY/WX    TMP DP  RH WIND       PRES   REMARKS
MCCOMB         PTCLDY    66  62  87 S8        29.70R
GULFPORT       MOCLDY    65  64  97 S7        29.75R FOG
BILOXI         PTCLDY    64  64 100 SW9       29.76R
PASCAGOULA     MOCLDY    68  65  90 S5        29.77R
STENNIS ARPT*  CLOUDY    68  64  88 SW8       29.75R

$$

COASTAL OBSERVATIONS
LAKE AND NEARSHORE STATIONS

STATION/POSITION TIME  TEMP    WIND        PRES    WAVE
                       AIR SEA DIR/SP/G            HT/PER
                 (UTC) (F)     (DEG/KT/KT) (MB)    (FT/S)
PASCAGOULA       0200   65     190/ 11/ 14 1007.5
WAVELAND YACHT   0200   64     200/  6/ 11 1006.6
GRAND ISLE       0200   67 61  210/  7/  9 1008.0
SOUTHWEST PASS   0200   65                 1008.3
NEW CANAL        0200   69 58  220/  7/ 11 1007.3
SHELL BEACH      0200   68 59  190/  9/ 13 1007.1

OFFSHORE STATIONS

STATION/POSITION TIME  TEMP    WIND        PRES    WAVE
                       AIR SEA DIR/SP/G            HT/PER
                 (UTC) (F)     (DEG/KT/KT) (MB)    (FT/S)
64 S DAUPHIN ISL 0200   74 74  210/ 12/ 14 1008.4    3/ 5

$$



USA.gov is the U.S. government's official web portal to all federal, state and local government web resources and services.